Regional Weather Roundup
Issued by NWS

Home | Current Version | Previous Version | Text Only | Print | Product List | Glossary On
Versions: 1 2 3 4 5 6 7 8 9 10 11 12 13 14 15 16 17 18 19 20 21 22 23 24 25 26 27 28 29 30 31 32 33 34 35 36 37 38 39 40 41 42 43 44 45 46 47 48 49 50
000
ASUS43 KMKX 251010
RWRWI

WISCONSIN REGIONAL WEATHER ROUNDUP
NATIONAL WEATHER SERVICE MILWAUKEE/SULLIVAN WI
500 AM CDT FRI JUL 25 2014

NOTE: "FAIR" INDICATES FEW OR NO CLOUDS BELOW 12,000 FEET WITH NO
SIGNIFICANT WEATHER AND/OR OBSTRUCTIONS TO VISIBILITY.

WIZ001-002-006>008-014>016-023>028-251100-
NORTHWEST WISCONSIN

CITY           SKY/WX    TMP DP  RH WIND       PRES   REMARKS
SUPERIOR ARPT  CLOUDY    57  55  95 CALM      29.84F
ASHLAND        CLOUDY    60  59  96 S7        29.88F
HAYWARD        CLOUDY    65  60  84 SE3       29.89F
SIREN          CLOUDY    66  58  75 SE5       29.84F
RICE LAKE      MOCLDY    64  58  80 SE7       29.89F
LADYSMITH      LGT RAIN  64  59  86 SE6       29.93F
EAU CLAIRE     MOCLDY    66  59  78 S9        29.89F
MENOMONIE      CLOUDY    66  60  81 SE5       29.88F
NEW RICHMOND   CLOUDY    66  58  77 S9        29.85F
OSCEOLA        CLOUDY    67  60  78 S7        29.87F
$$

WIZ003>005-009-010-017-018-251100-
NORTH CENTRAL WISCONSIN

CITY           SKY/WX    TMP DP  RH WIND       PRES   REMARKS
WOODRUFF       PTCLDY    59  55  84 SW3       29.96R
RHINELANDER    MOCLDY    61  56  83 SW6       29.97R
EAGLE RIVER    PTCLDY    55  53  93 CALM      29.96R
LAND O LAKES   PTCLDY    55  55  97 CALM      29.96R
PHILLIPS       CLOUDY    61  57  88 S6        29.94F
TOMAHAWK       CLOUDY    58  55  91 CALM      29.96F
MEDFORD        MOCLDY    62  59  90 S8        29.95F
MERRILL        MOCLDY    61  59  92 CALM      29.96F
$$

WIZ029-030-035-036-043>047-251100-
CENTRAL WISCONSIN

CITY           SKY/WX    TMP DP  RH WIND       PRES   REMARKS
WAUSAU         PTCLDY    62  58  86 S5        29.96R
MOSINEE        MOCLDY    61  59  94 S6        29.99S
MARSHFIELD     MOCLDY    62  58  86 SW6       29.98R
STEVENS POINT  MOCLDY    60  55  84 S8        29.98S
WAUPACA        CLOUDY    61  55  82 CALM      29.99S
WAUTOMA        PTCLDY    58  55  89 CALM      30.00R
WISC RAPIDS    PTCLDY    62  57  83 S6        29.99R
CAMP DOUGLAS   PTCLDY    64  60  85 S9        29.99R
$$

WIZ011>013-019>022-031-037>040-048>050-251100-
NORTHEAST WISCONSIN

CITY           SKY/WX    TMP DP  RH WIND       PRES   REMARKS
ANTIGO         PTCLDY    57  56  96 S5        29.97F
STURGEON BAY   PTCLDY    59  45  58 SW8       29.97R
GREEN BAY      MOCLDY    62  53  72 SW7       29.99R
MANITOWOC      MOCLDY    61  48  62 W5        30.00R
APPLETON       PTCLDY    59  50  72 SW6       30.01R
CLINTONVILLE   MOCLDY    59  52  77 S3        29.98S
OSHKOSH        CLOUDY    60  50  69 S9        30.00R
$$

WIZ032>034-041-042-053>061-251100-
SOUTHWEST WISCONSIN

CITY           SKY/WX    TMP DP  RH WIND       PRES   REMARKS
LA CROSSE      CLOUDY    70  58  65 S16       29.95S
SPARTA         LGT RAIN  63  58  83 S3        29.98S
VIROQUA        CLOUDY    63  58  84 S9        30.02R
BOSCOBEL       CLOUDY    65  58  78 SW3       30.02R
PRAIRIE DU CHI LGT RAIN  66  56  70 CALM      30.01S
PLATTEVILLE    MOCLDY    61  58  89 CALM      30.07R
$$

WIZ056-057-062-063-064-067-068-251100-
SOUTH CENTRAL WISCONSIN

CITY           SKY/WX    TMP DP  RH WIND       PRES   REMARKS
BARABOO/DELLS  MOCLDY    61  54  78 SW7       30.02R
LONE ROCK      CLOUDY    67  57  70 W6        30.04R
WATERTOWN      PTCLDY    56  48  76 S3        30.01S
MADISON        MOCLDY    64  50  60 S7        30.01F
MIDDLETON      FAIR      63  51  64 SW10G16   30.01S
MONROE         CLOUDY    59  52  77 SW13      30.04R
JANESVILLE     MOCLDY    59  48  67 CALM      30.01F
$$

WIZ051-052-058>065-066-070>072-251100-
SOUTHEAST WISCONSIN

CITY           SKY/WX    TMP DP  RH WIND       PRES   REMARKS
MILWAUKEE      PTCLDY    60  45  57 SW10      30.02F
WAUKESHA       PTCLDY    55  45  67 S5        30.03S
MILWAUKEE/TIMM PTCLDY    59  43  55 S6        30.02S
RACINE         CLEAR     60  47  61 SW9       30.04F
BURLINGTON     CLEAR     51  48  88 CALM      30.02F
KENOSHA        CLEAR     58  48  69 S7        30.03F
FOND DU LAC    MOCLDY    60  47  61 SW8       30.02R
SHEBOYGAN      MOCLDY    58  47  66 SW7       30.01R
WEST BEND      PTCLDY    57  45  62 SW6       30.02R
JUNEAU         CLEAR     56  46  66 S3        30.03R
$$

LSZ147-162-251100-
LAKE SUPERIOR

STATION/POSITION TIME  TEMP    WIND        PRES    WAVE
                       AIR SEA DIR/SP/G            HT/PER
                 (UTC) (F)     (DEG/KT/KT) (MB)    (FT/S)
$$

LMZ867-665-643>646-251100-
LAKE MICHIGAN

STATION/POSITION TIME  TEMP    WIND        PRES    WAVE
                       AIR SEA DIR/SP/G            HT/PER
                 (UTC) (F)     (DEG/KT/KT) (MB)    (FT/S)
$$

TC  - TEMPERATURE IN CELSIUS
VSB - VISIBILITY IN STATUTE MILES
WCI - WIND CHILL INDEX
HX  - HEAT INDEX



USA.gov is the U.S. government's official web portal to all federal, state and local government web resources and services.